(460788) = 2014 WD30

Discovered at Catalina on 2010-10-03 by CSS.

Orbit

Orbit type: Main Belt

Note: WebGL enabled browser required.

epoch2024-03-31.0
epoch JD2460400.5
perihelion date2022-07-10.60645
perihelion JD2459771.10646
argument of perihelion (°)307.39218
ascending node (°)86.76971
inclination (°)7.25371
eccentricity0.1042995
perihelion distance (AU)2.2130551
Tisserand w.r.t. Jupiter3.5
ΔV w.r.t. Earth (km/sec)9.6
semimajor axis (AU)2.4707536
mean anomaly (°)159.72842
mean daily motion (°/day)0.25378150
aphelion distance (AU)2.728
period (years)3.88
P-vector [x]0.82110583
P-vector [y]0.55542861
P-vector [z]0.13146965
Q-vector [x]-0.55668074
Q-vector [y]0.72842342
Q-vector [z]0.39938186
absolute magnitude17.18
phase slope0.15
uncertainty0
referenceE2024-G95
observations used231
oppositions10
arc length (days)7326
first opposition used2004
last opposition used2024
residual rms (arc-secs)0.76
perturbers coarse indicatorM-v
perturbers precise indicator003Ek
first observation date used2004-03-17.0
last observation date used2024-04-07.0
computer nameMPCLINUX
JD of orbit computation2457428.529788
perihelion JD uncertainty (days)1.5578E-04
argument of perihelion uncertainty (°)6.0189E-05
ascending node uncertainty (°)3.9494E-05
inclination uncertainty (°)4.5511E-06
eccentricity uncertainty 1.8344E-07
perihelion distance uncertainty (AU)4.6105E-07
Minimum Orbit Intersection Distances (in AU)
for orbit epoch: 2460400.5, reference: E2024-GB3
Mercury1.88182
Venus1.49105
Earth1.22913
Mars0.73367
Jupiter2.64958
Saturn6.68004
Uranus15.8069
Neptune27.6156

Observations

232 total observations over interval: 2004 03 17.295590 – 2023 01 10.494269
These data are available for download (format description).

Date (UT) J2000 RA J2000 Dec Magn Location Ref
2004 03 17.295590 09 04 16.863 +26 17 15.35 21.44 V 645 – Apache Point-Sloan Digital Sky Survey MPS 553506
2004 03 17.299062 09 04 16.802 +26 17 15.24 22.43   645 – Apache Point-Sloan Digital Sky Survey MPS 553506
2010 10 03.38691 02 05 55.60 +00 14 54.9 20.6 V 703 – Catalina Sky Survey MPS 553506
2010 10 03.39282 02 05 55.35 +00 14 55.0 19.4 V 703 – Catalina Sky Survey MPS 553506
2010 10 03.39874 02 05 55.03 +00 14 51.9 19.8 V 703 – Catalina Sky Survey MPS 553506
2010 10 03.40466 02 05 54.85 +00 14 51.3 19.2 V 703 – Catalina Sky Survey MPS 553506
2010 10 11.28824 01 59 34.15 -00 18 56.0 19.7 V 703 – Catalina Sky Survey MPS 553506
2010 10 11.29523 01 59 33.75 -00 18 59.3 20.1 V 703 – Catalina Sky Survey MPS 553506
2010 10 11.30222 01 59 33.32 -00 19 00.0 19.8 V 703 – Catalina Sky Survey MPS 553506
2010 10 11.30926 01 59 33.00 -00 19 01.0 20.3 V 703 – Catalina Sky Survey MPS 553506
2010 10 28.28564 01 43 43.89 -01 09 43.8 19.2 V 703 – Catalina Sky Survey MPS 553506
2010 10 28.29264 01 43 43.50 -01 09 45.0 20.4 V 703 – Catalina Sky Survey MPS 553506
2010 10 28.29964 01 43 43.06 -01 09 45.2 19.8 V 703 – Catalina Sky Survey MPS 553506
2010 10 28.30657 01 43 42.67 -01 09 44.8 20.0 V 703 – Catalina Sky Survey MPS 553506
2010 11 08.24300 01 34 24.52 -01 15 14.1 20.2 V 703 – Catalina Sky Survey MPS 553506
2010 11 08.24928 01 34 24.24 -01 15 13.3 20.2 V 703 – Catalina Sky Survey MPS 553506
2010 11 08.25569 01 34 23.98 -01 15 12.4 19.7 V 703 – Catalina Sky Survey MPS 553506
2010 11 08.26205 01 34 23.62 -01 15 13.1 20.2 V 703 – Catalina Sky Survey MPS 553506
2012 03 14.22836 11 11 09.24 +17 34 15.1 20.8 V G96 – Mt. Lemmon Survey MPS 553506
2012 03 14.23588 11 11 08.80 +17 34 17.2 20.6 V G96 – Mt. Lemmon Survey MPS 553506
2012 03 14.24340 11 11 08.37 +17 34 19.5 20.9 V G96 – Mt. Lemmon Survey MPS 553506
2012 03 14.25097 11 11 07.94 +17 34 21.5 20.6 V G96 – Mt. Lemmon Survey MPS 553506
2014 10 07.41626 03 26 03.858 +09 01 29.74 19.8 i F51 – Pan-STARRS 1, Haleakala MPS 551786
2014 10 07.42880 03 26 03.561 +09 01 28.30 19.8 i F51 – Pan-STARRS 1, Haleakala MPS 551786
2014 10 07.44132 03 26 03.262 +09 01 26.94 19.6 i F51 – Pan-STARRS 1, Haleakala MPS 551786
2014 10 22.37641 03 17 15.49 +08 31 21.4 19.8 V 703 – Catalina Sky Survey MPS 551786
2014 10 22.38155 03 17 15.14 +08 31 21.1 19.2 V 703 – Catalina Sky Survey MPS 551786
2014 10 22.38669 03 17 14.91 +08 31 20.5 19.8 V 703 – Catalina Sky Survey MPS 551786
2014 10 22.39181 03 17 14.56 +08 31 20.6 20.0 V 703 – Catalina Sky Survey MPS 551786
2014 10 23.31745 03 16 29.93 +08 29 29.0 19.6 r G45 – Space Surveillance Telescope, Atom Site MPS 553506
2014 10 23.32981 03 16 29.30 +08 29 27.7 20.0 r G45 – Space Surveillance Telescope, Atom Site MPS 553506
2014 10 23.34204 03 16 28.69 +08 29 26.2 20.3 r G45 – Space Surveillance Telescope, Atom Site MPS 553506
2014 10 23.35370 03 16 28.07 +08 29 24.6 20.0 r G45 – Space Surveillance Telescope, Atom Site MPS 553506
2014 10 23.36502 03 16 27.50 +08 29 23.5 20.0 r G45 – Space Surveillance Telescope, Atom Site MPS 553506
2014 10 25.51656 03 14 38.714 +08 25 11.90 19.7 w F51 – Pan-STARRS 1, Haleakala MPS 547986
2014 10 25.51723 03 14 38.676 +08 25 11.79 19.7 w F51 – Pan-STARRS 1, Haleakala MPS 547986
2014 10 25.52956 03 14 38.006 +08 25 10.35 19.7 w F51 – Pan-STARRS 1, Haleakala MPS 547986
2014 10 25.53022 03 14 37.962 +08 25 10.35 19.7 w F51 – Pan-STARRS 1, Haleakala MPS 547986
2014 10 25.54251 03 14 37.298 +08 25 08.93 19.6 w F51 – Pan-STARRS 1, Haleakala MPS 547986
2014 10 25.54316 03 14 37.262 +08 25 08.77 19.7 w F51 – Pan-STARRS 1, Haleakala MPS 547986
2014 10 25.55543 03 14 36.594 +08 25 07.39 19.8 w F51 – Pan-STARRS 1, Haleakala MPS 547986
2014 10 25.55609 03 14 36.556 +08 25 07.37 19.7 w F51 – Pan-STARRS 1, Haleakala MPS 547986
2014 10 29.29874 03 11 14.73 +08 18 14.2 19.4 V 703 – Catalina Sky Survey MPS 547986
2014 10 29.30328 03 11 14.50 +08 18 13.8 19.3 V 703 – Catalina Sky Survey MPS 547986
2014 10 29.30782 03 11 14.20 +08 18 11.7 19.8 V 703 – Catalina Sky Survey MPS 547986
2014 10 29.31236 03 11 13.87 +08 18 11.9 19.6 V 703 – Catalina Sky Survey MPS 547986
2014 11 11.46812 02 58 10.871 +08 02 02.35 19.3 i F51 – Pan-STARRS 1, Haleakala MPS 547986
2014 11 11.48174 02 58 10.012 +08 02 01.78 19.4 i F51 – Pan-STARRS 1, Haleakala MPS 547986
2014 11 17.24991 02 52 26.61 +08 00 39.6 20.3 r G45 – Space Surveillance Telescope, Atom Site MPS 553506
2014 11 17.25405 02 52 26.36 +08 00 40.0 20.1 r G45 – Space Surveillance Telescope, Atom Site MPS 553506
2014 11 17.25894 02 52 26.05 +08 00 39.5 20.0 r G45 – Space Surveillance Telescope, Atom Site MPS 553506
2014 11 17.26308 02 52 25.79 +08 00 39.9 20.2 r G45 – Space Surveillance Telescope, Atom Site MPS 553506
2014 11 17.26503 02 52 25.67 +08 00 39.3 19.9 r G45 – Space Surveillance Telescope, Atom Site MPS 553506
2014 11 17.26657 02 52 25.66 +08 00 40.3 19.9 V 703 – Catalina Sky Survey MPS 545953
2014 11 17.26918 02 52 25.45 +08 00 39.6 19.9 r G45 – Space Surveillance Telescope, Atom Site MPS 553506
2014 11 17.27162 02 52 25.29 +08 00 41.4 19.5 V 703 – Catalina Sky Survey MPS 545953
2014 11 17.27666 02 52 25.03 +08 00 40.2 19.6 V 703 – Catalina Sky Survey MPS 545953
2014 11 17.28169 02 52 24.74 +08 00 39.7 19.7 V 703 – Catalina Sky Survey MPS 545953
2014 11 18.24326 02 51 29.37 +08 00 52.5 19.1 V G96 – Mt. Lemmon Survey MPS 545953
2014 11 18.24785 02 51 29.08 +08 00 52.4 19.3 V G96 – Mt. Lemmon Survey MPS 545953
2014 11 18.24805 02 51 29.02 +08 00 52.2 19.5 r G45 – Space Surveillance Telescope, Atom Site MPS 553506
2014 11 18.25219 02 51 28.75 +08 00 52.7 19.4 r G45 – Space Surveillance Telescope, Atom Site MPS 553506
2014 11 18.25242 02 51 28.82 +08 00 52.2 19.1 V G96 – Mt. Lemmon Survey MPS 545953
2014 11 18.25293 02 51 28.75 +08 00 53.0 20.0 r G45 – Space Surveillance Telescope, Atom Site MPS 553506
2014 11 18.25700 02 51 28.53 +08 00 52.4 19.1 V G96 – Mt. Lemmon Survey MPS 545953
2014 11 18.25718 02 51 28.51 +08 00 52.2 20.1 r G45 – Space Surveillance Telescope, Atom Site MPS 553506
2014 11 18.26328 02 51 28.13 +08 00 52.6 19.8 r G45 – Space Surveillance Telescope, Atom Site MPS 553506
2014 11 21.42635 02 48 31.321 +08 02 29.19 19.7 w F51 – Pan-STARRS 1, Haleakala MPS 547986
2014 11 21.43792 02 48 30.662 +08 02 29.66 19.7 w F51 – Pan-STARRS 1, Haleakala MPS 547986
2014 11 21.44961 02 48 29.999 +08 02 30.18 19.7 w F51 – Pan-STARRS 1, Haleakala MPS 547986
2014 11 21.46122 02 48 29.334 +08 02 30.68 19.7 w F51 – Pan-STARRS 1, Haleakala MPS 547986
2014 11 23.22935 02 46 55.25 +08 04 01.1 19.9 r G45 – Space Surveillance Telescope, Atom Site MPS 562876
2014 11 23.23350 02 46 55.02 +08 04 02.0 19.8 r G45 – Space Surveillance Telescope, Atom Site MPS 562876
2014 11 23.23838 02 46 54.71 +08 04 02.0 19.5 r G45 – Space Surveillance Telescope, Atom Site MPS 562876
2014 11 23.24253 02 46 54.52 +08 04 02.0 20.1 r G45 – Space Surveillance Telescope, Atom Site MPS 562876
2014 11 23.24448 02 46 54.36 +08 04 02.5 20.5 r G45 – Space Surveillance Telescope, Atom Site MPS 562876
2014 11 23.24862 02 46 54.16 +08 04 02.7 20.3 r G45 – Space Surveillance Telescope, Atom Site MPS 562876
2014 11 26.21856 02 44 24.29 +08 07 40.9 20.4 r G45 – Space Surveillance Telescope, Atom Site MPS 562876
2014 11 26.22270 02 44 24.09 +08 07 40.8 20.6 r G45 – Space Surveillance Telescope, Atom Site MPS 562876
2014 11 26.22759 02 44 23.82 +08 07 41.9 20.1 r G45 – Space Surveillance Telescope, Atom Site MPS 562876
2014 11 26.23173 02 44 23.62 +08 07 42.0 19.9 r G45 – Space Surveillance Telescope, Atom Site MPS 562876
2014 11 26.23783 02 44 23.38 +08 07 42.6 20.5 r G45 – Space Surveillance Telescope, Atom Site MPS 562876
2014 11 26.24197 02 44 23.08 +08 07 42.7 19.9 r G45 – Space Surveillance Telescope, Atom Site MPS 562876
2014 11 29.26215 02 42 03.10 +08 12 50.0 20.5 V 703 – Catalina Sky Survey MPS 551786
2014 11 29.26867 02 42 02.76 +08 12 50.7 19.7 V 703 – Catalina Sky Survey MPS 551786
2014 11 29.27520 02 42 02.41 +08 12 52.1 20.0 V 703 – Catalina Sky Survey MPS 551786
2014 11 29.28174 02 42 02.02 +08 12 51.6 19.3 V 703 – Catalina Sky Survey MPS 551786
2014 12 13.34636 02 34 30.963 +08 55 09.71 20.2 w F51 – Pan-STARRS 1, Haleakala MPS 551786
